Atwater, CA

7:20 AM PDT on May 29, 2017 (GMT -0700)
Castle

Weather History for KMER - May, 2013

Change the Weather History Date:

Saturday, May 18, 2013

  Actual Average (KMCE) Record (KMCE)
Temperature  
Mean Temperature 65 °F -  
Max Temperature 84 °F 85 °F 103 °F (2008)
Min Temperature 46 °F 51 °F 44 °F (2017)
Growing Degree Days 15 (Base 50)    
Moisture  
Dew Point 43 °F    
Average Humidity 59    
Maximum Humidity 93    
Minimum Humidity 16    
Precipitation  
Precipitation 0.00 in - - ()
Sea Level Pressure  
Sea Level Pressure 30.05 in    
Wind  
Wind Speed 8 mph (North)    
Max Wind Speed 17 mph    
Max Gust Speed -    
Visibility 10 miles    
Events      
Averages and records for this station are not official NWS values.
T = Trace of Precipitation, MM = Missing Value Source: NWS Daily Summary

Daily Weather History Graph

Daily Weather History Graph

Search for Another Location

Airport or City:

Trip Planner

Search our weather history database for the weather conditions in past years. The results will help you decide how hot, cold, wet, or windy it might be!

Date:

Astronomy

May. 18, 2013 Rise Set
Actual Time 5:50 AM PDT 8:07 PM PDT
Civil Twilight 5:21 AM PDT 8:36 PM PDT
Nautical Twilight 4:45 AM PDT 9:13 PM PDT
Astronomical Twilight 4:05 AM PDT 9:52 PM PDT
Moon 1:23 PM PDT (5/18) 1:37 AM PDT (5/18)
Length of Visible Light 15h 15m
Length of Day
14h 16m
First Quarter, 56% of the Moon is Illuminated
May 18
First Quarter
May 24
Full
May 31
Last Quarter
Jun 8
New
Jun 16
First Quarter

Hourly Weather History & Observations

Time (PDT) Temp. Windchill Dew Point Humidity Pressure Visibility Wind Dir Wind Speed Gust Speed Precip Events Conditions
12:15 AM 53.6 °F - 39.2 °F 58% 30.03 in 10.0 mi NNE 8.1 mph - N/A   Clear
12:35 AM 53.6 °F - 39.2 °F 58% 30.03 in 10.0 mi North 8.1 mph - N/A   Clear
12:55 AM 51.8 °F - 39.2 °F 62% 30.03 in 10.0 mi North 6.9 mph - N/A   Clear
1:15 AM 50.0 °F - 39.2 °F 66% 30.03 in 10.0 mi North 5.8 mph - N/A   Clear
1:35 AM 53.6 °F - 41.0 °F 62% 30.03 in 10.0 mi North - - N/A   Clear
1:55 AM 53.6 °F - 41.0 °F 62% 30.03 in 10.0 mi North - - N/A   Clear
2:15 AM 53.6 °F - 41.0 °F 62% 30.03 in 10.0 mi North - - N/A   Clear
2:35 AM 51.8 °F - 42.8 °F 71% 30.04 in 10.0 mi North 5.8 mph - N/A   Clear
2:55 AM 48.2 °F - 42.8 °F 82% 30.04 in 10.0 mi North 4.6 mph - N/A   Clear
3:15 AM 48.2 °F - 42.8 °F 82% 30.04 in 10.0 mi North 5.8 mph - N/A   Clear
3:35 AM 48.2 °F - 42.8 °F 82% 30.04 in 10.0 mi North 6.9 mph - N/A   Clear
3:55 AM 48.2 °F - 42.8 °F 82% 30.05 in 10.0 mi NNW 4.6 mph - N/A   Clear
4:15 AM 48.2 °F - 42.8 °F 82% 30.05 in 10.0 mi NNW 5.8 mph - N/A   Clear
4:35 AM 48.2 °F - 44.6 °F 87% 30.05 in 10.0 mi NNW 4.6 mph - N/A   Clear
4:55 AM 46.4 °F 44.3 °F 44.6 °F 93% 30.05 in 10.0 mi NW 4.6 mph - N/A   Clear
5:15 AM 46.4 °F 43.5 °F 44.6 °F 93% 30.05 in 10.0 mi NW 5.8 mph - N/A   Clear
5:35 AM 48.2 °F - 44.6 °F 87% 30.06 in 10.0 mi NW 6.9 mph - N/A   Clear
5:55 AM 46.4 °F 44.3 °F 44.6 °F 93% 30.06 in 10.0 mi NNW 4.6 mph - N/A   Clear
6:15 AM 46.4 °F 45.2 °F 44.6 °F 93% 30.07 in 10.0 mi NNE 3.5 mph - N/A   Clear
6:35 AM 48.2 °F - 46.4 °F 93% 30.08 in 10.0 mi North - - N/A   Clear
6:45 AM 48.2 °F - 46.4 °F 93% 30.08 in 10.0 mi Variable 3.5 mph - N/A   Clear
6:55 AM 51.8 °F - 46.4 °F 82% 30.08 in 10.0 mi NNW 4.6 mph - N/A   Clear
7:45 AM 57.2 °F - 44.6 °F 63% 30.09 in 10.0 mi NNW 8.1 mph - N/A   Clear
8:45 AM 62.6 °F - 44.6 °F 52% 30.10 in 10.0 mi NNW 9.2 mph - N/A   Clear
9:45 AM 66.2 °F - 44.6 °F 46% 30.11 in 10.0 mi NNW 12.7 mph - N/A   Clear
10:45 AM 69.8 °F - 42.8 °F 38% 30.10 in 10.0 mi North 11.5 mph - N/A   Clear
12:45 PM 75.2 °F - 42.8 °F 31% 30.08 in 10.0 mi North 9.2 mph - N/A   Clear
1:45 PM 78.8 °F - 42.8 °F 28% 30.07 in 10.0 mi NW 13.8 mph - N/A   Clear
2:45 PM 82.4 °F - 32.0 °F 16% 30.06 in 10.0 mi North 9.2 mph - N/A   Clear
3:45 PM 84.2 °F - 39.2 °F 20% 30.04 in 10.0 mi NNW 17.3 mph - N/A   Clear
4:45 PM 84.2 °F - 39.2 °F 20% 30.03 in 10.0 mi NNW 13.8 mph - N/A   Clear
5:45 PM 82.4 °F - 39.2 °F 21% 30.02 in 10.0 mi NNW 13.8 mph - N/A   Clear
6:45 PM 80.6 °F - 37.4 °F 21% 30.02 in 10.0 mi North 13.8 mph - N/A   Clear
7:45 PM 75.2 °F - 35.6 °F 24% 30.02 in 10.0 mi NNW 11.5 mph - N/A   Clear
9:15 PM 69.8 °F - 46.4 °F 43% 30.03 in 10.0 mi North - - N/A   Clear
9:35 PM 69.8 °F - 44.6 °F 40% 30.03 in 10.0 mi North - - N/A   Clear
9:55 PM 68.0 °F - 44.6 °F 43% 30.04 in 10.0 mi North - - N/A   Clear
10:15 PM 66.2 °F - 44.6 °F 46% 30.04 in 10.0 mi North - - N/A   Clear
10:35 PM 64.4 °F - 44.6 °F 49% 30.04 in 10.0 mi North 5.8 mph - N/A   Clear
10:55 PM 62.6 °F - 44.6 °F 52% 30.04 in 10.0 mi NE 6.9 mph - N/A   Clear
11:15 PM 62.6 °F - 46.4 °F 55% 30.04 in 10.0 mi NE 8.1 mph - N/A   Clear
11:35 PM 64.4 °F - 46.4 °F 52% 30.05 in 10.0 mi NE 8.1 mph - N/A   Clear
11:55 PM 62.6 °F - 46.4 °F 55% 30.05 in 10.0 mi North 6.9 mph - N/A   Clear